RH
2860 2872 2844 2860 2855 2861 2812 2787 2771 2763 2764 2767 2801 2832 2888 2937 3001 3044 3117 3190 3263 3317 3385 3451 3526 3570 3627 3689 3768 3854 3940 4004 4065 4107 4154 4166 4172 4153 4137 4107 4080 4056 4029 3974 3902 3848 3800 3752 3668 3604 3530 3444 3371 3287 3196 3076 2985 2915 2859 2805 2777 2746 2724 2713 2693 2665 2643 2624 2596 2565 2521 2468 2404 2323 2258 2190 2126 2060 2001 1945 1852 1746 1634 1526 1415 1328 1259 1203 1166 1122 1113 1119 1124 1162 1217 1266 1305 1393 1543 1702 1834 1889 1977
3046 3019 2991 2955 2943 2921 2871 2838 2800 2767 2757 2740 2752 2794 2841 2878 2954 2990 3074 3159 3229 3297 3387 3470 3525 3574 3679 3753 3860 3955 4058 4121 4199 4243 4287 4318 4340 4316 4327 4336 4375 4400 4356 4263 4159 4068 3998 3917 3838 3754 3662 3577 3493 3392 3280 3179 3086 3021 2982 2963 2941 2929 2910 2910 2882 2859 2823 2795 2765 2743 2701 2653 2602 2555 2482 2417 2349 2293 2230 2171 2109 2023 1944 1821 1696 1612 1504 1440 1373 1315 1282 1243 1232 1234 1355 1349 1322 1294 1470 1618 1691 1659 1659
3130 3064 3000 2964 2930 2900 2850 2806 2756 2729 2709 2682 2660 2679 2740 2793 2858 2916 3001 3093 3186 3257 3375 3469 3563 3640 3779 3898 4021 4116 4177 4257 4307 4357 4395 4431 4453 4470 4523 4584 4620 4686 4637 4549 4427 4342 4228 4150 4046 3968 3848 3736 3632 3503 3399 3296 3218 3156 3140 3129 3102 3090 3082 3065 3062 3051 3006 2973 2957 2937 2909 2855 2824 2790 2714 2646 2584 2533 2468 2426 2372 2327 2259 2163 2057 1954 1870 1792 1723 1642 1584 1523 1479 1468 1550 1561 1498 1470 1547 1640 1678 1571 1510
3015 2938 2871 2835 2791 2755 2727 2672 2650 2617 2614 2609 2581 2573 2618 2670 2751 2832 2907 2991 3093 3224 3363 3510 3651 3759 3945 4095 4215 4296 4343 4415 4459 4492 4539 4572 4600 4609 4669 4735 4796 4802 4796 4757 4702 4616 4527 4456 4377 4247 4070 3913 3821 3680 3557 3468 3407 3358 3331 3304 3301 3293 3265 3251 3217 3179 3162 3157 3135 3124 3090 3076 3063 3015 2958 2901 2860 2809 2755 2713 2671 2593 2527 2479 2413 2343 2284 2219 2143 2085 2010 1922 1870 1847 1797 1770 1753 1742 1788 1849 1810 1656 1579
2812 2754 2707 2691 2663 2647 2623 2590 2563 2549 2527 2538 2522 2511 2538 2582 2668 2746 2810 2916 3040 3213 3388 3580 3785 3938 4118 4277 4415 4479 4529 4573 4625 4691 4718 4718 4730 4730 4807 4860 4915 4937 4937 4949 4921 4805 4721 4695 4643 4507 4351 4179 4039 3924 3810 3718 3658 3620 3579 3569 3530 3503 3442 3423 3384 3345 3318 3318 3307 3305 3307 3304 3283 3265 3218 3177 3131 3082 3056 3052 2988 2896 2845 2835 2844 2809 2746 2668 2609 2545 2459 2387 2323 2314 2248 2110 2016 2088 2121 2154 2096 1931 1893
2738 2700 2676 2670 2676 2685 2686 2651 2640 2594 2539 2528 2506 2528 2530 2569 2638 2715 2779 2891 3048 3227 3449 3690 3907 4092 4260 4439 4556 4659 4692 4730 4796 4868 4884 4906 4906 4939 4970 5013 5085 5124 5118 5153 5143 5090 4951 4822 4716 4654 4539 4413 4299 4176 4096 4024 3980 3943 3891 3891 3889 3820 3738 3743 3778 3657 3520 3498 3479 3457 3496 3509 3527 3509 3512 3481 3443 3402 3384 3363 3332 3257 3198 3172 3143 3113 3084 3032 2967 2909 2891 2835 2782 2782 2674 2539 2501 2544 2549 2521 2466 2359 2337
2799 2788 2805 2819 2855 2873 2887 2871 2827 2756 2685 2641 2630 2635 2599 2610 2646 2706 2787 2905 3059 3282 3532 3776 4005 4193 4370 4506 4648 4729 4795 4832 4898 4980 4994 5038 5071 5115 5145 5189 5233 5271 5285 5306 5324 5322 5213 5071 4921 4834 4738 4655 4540 4457 4390 4346 4314 4274 4238 4277 4302 4286 4085 4145 4235 4081 3812 3675 3654 3659 3725 3752 3754 3766 3788 3785 3752 3755 3726 3730 3698 3585 3482 3418 3391 3371 3316 3284 3244 3188 3167 3147 3116 3087 3029 2974 2954 3060 2955 2879 2796 2732 2672
2923 2948 2976 3029 3076 3124 3130 3102 3075 3003 2906 2818 2776 2729 2734 2684 2690 2743 2830 2945 3121 3345 3575 3824 4048 4255 4428 4570 4679 4787 4847 4915 4975 5046 5093 5148 5213 5277 5321 5376 5409 5433 5454 5451 5441 5374 5303 5213 5129 5077 5029 4968 4865 4754 4705 4684 4643 4610 4598 4609 4620 4626 4406 4373 4391 4320 4078 3924 3891 3985 4013 3985 3954 3966 3996 4029 4072 4107 4059 4046 4026 3966 3837 3740 3665 3606 3530 3468 3434 3401 3384 3363 3348 3322 3286 3268 3315 3311 3272 3181 3043 2944 2842
3051 3109 3179 3227 3288 3355 3392 3401 3357 3287 3207 3082 2987 2923 2853 2825 2809 2826 2910 3030 3207 3409 3611 3830 4048 4244 4428 4565 4718 4820 4902 4990 5080 5162 5222 5299 5387 5474 5546 5601 5645 5680 5685 5659 5649 5587 5525 5460 5409 5379 5391 5333 5242 5132 5064 5037 5029 5044 4995 4982 4960 4905 4704 4561 4514 4585 4354 4206 4168 4232 4293 4248 4206 4166 4210 4220 4235 4273 4304 4319 4298 4256 4180 4070 3937 3807 3710 3640 3587 3541 3555 3568 3555 3540 3465 3399 3357 3386 3402 3338 3258 3142 3015
3162 3271 3349 3419 3483 3564 3606 3632 3616 3577 3497 3388 3277 3163 3071 3018 2982 2982 3051 3163 3301 3444 3624 3837 4034 4224 4417 4565 4729 4864 4957 5066 5162 5272 5371 5480 5590 5700 5765 5820 5888 5921 5948 5955 5943 5905 5843 5742 5674 5643 5568 5491 5417 5448 5460 5464 5490 5510 5471 5460 5416 5284 5028 4899 4849 4895 4724 4571 4488 4492 4553 4627 4646 4550 4448 4391 4374 4379 4440 4441 4407 4392 4327 4246 4157 4043 3935 3844 3766 3688 3662 3630 3595 3599 3576 3540 3492 3423 3438 3424 3393 3329 3230
3263 3371 3490 3588 3641 3694 3753 3768 3782 3766 3716 3636 3538 3413 3316 3241 3199 3180 3221 3291 3391 3509 3675 3855 4018 4204 4385 4550 4714 4847 4979 5105 5206 5338 5491 5645 5791 5881 5985 6051 6102 6135 6156 6152 6124 6065 5991 5863 5773 5745 5691 5665 5680 5699 5778 5823 5849 5871 5877 5846 5776 5635 5395 5226 5218 5313 5098 4927 4840 4835 4844 4893 4967 4968 4768 4638 4549 4521 4535 4517 4502 4531 4488 4427 4329 4278 4158 4063 3960 3847 3783 3735 3676 3612 3632 3642 3622 3558 3499 3485 3490 3453 3373
3435 3510 3624 3710 3786 3822 3795 3810 3821 3841 3830 3791 3755 3655 3542 3462 3409 3387 3391 3452 3527 3630 3757 3895 4044 4207 4387 4560 4702 4860 5001 5116 5250 5382 5577 5752 5923 6049 6134 6204 6262 6272 6260 6210 6151 6048 5974 5888 5813 5786 5871 5948 6047 6119 6174 6205 6237 6242 6245 6205 6143 6075 5914 5712 5571 5639 5443 5285 5180 5134 5115 5109 5123 5190 5125 4966 4804 4704 4702 4704 4694 4687 4638 4582 4504 4488 4371 4270 4167 4039 3996 3921 3846 3771 3762 3747 3727 3696 3648 3620 3573 3514 3453
3573 3665 3718 3788 3813 3830 3824 3830 3841 3855 3861 3861 3839 3792 3732 3649 3591 3563 3579 3623 3695 3772 3873 3982 4123 4257 4406 4577 4745 4901 5013 5151 5272 5426 5616 5819 5988 6148 6227 6298 6355 6349 6332 6265 6195 6108 6041 6019 6006 6069 6201 6315 6409 6480 6534 6543 6524 6563 6535 6493 6437 6405 6359 6187 5974 5805 5749 5591 5430 5339 5320 5293 5284 5287 5286 5189 5051 4946 4923 4918 4920 4890 4817 4727 4657 4638 4593 4475 4358 4238 4173 4097 4035 4059 4030 3945 3870 3811 3758 3708 3663 3583 3520
3583 3614 3640 3657 3690 3718 3716 3752 3762 3787 3814 3834 3851 3851 3801 3746 3713 3685 3718 3757 3840 3898 4012 4109 4215 4338 4462 4632 4786 4934 5054 5200 5335 5467 5638 5819 6016 6170 6243 6320 6377 6399 6371 6310 6246 6198 6206 6237 6322 6391 6491 6568 6611 6656 6671 6688 6714 6788 6774 6727 6655 6569 6543 6459 6298 6004 5931 5795 5639 5482 5438 5416 5385 5333 5349 5307 5265 5213 5168 5142 5107 5105 5029 4928 4846 4805 4759 4674 4573 4462 4338 4265 4220 4196 4148 4081 4017 3926 3823 3729 3655 3588 3547
3416 3435 3430 3450 3466 3494 3546 3605 3651 3669 3715 3759 3806 3845 3826 3788 3771 3772 3810 3860 3932 3995 4103 4205 4325 4442 4576 4699 4842 5007 5116 5257 5382 5528 5674 5827 6003 6159 6243 6314 6369 6385 6391 6347 6325 6305 6353 6432 6514 6570 6638 6645 6677 6719 6745 6751 6820 6880 6929 6887 6824 6694 6562 6470 6358 6155 6026 5901 5787 5641 5592 5523 5469 5409 5378 5395 5409 5454 5458 5421 5389 5387 5270 5160 5066 4970 4899 4820 4721 4647 4535 4412 4301 4180 4130 4082 4056 3980 3900 3809 3698 3607 3552
3252 3280 3300 3339 3383 3432 3504 3563 3604 3657 3700 3763 3823 3865 3859 3843 3827 3821 3855 3904 3973 4067 4158 4288 4419 4541 4659 4801 4924 5076 5176 5295 5420 5549 5676 5827 5967 6143 6221 6265 6309 6331 6329 6340 6348 6370 6376 6436 6513 6563 6629 6688 6739 6776 6782 6802 6857 6948 6977 6957 6877 6752 6626 6523 6406 6327 6212 6053 5935 5845 5762 5687 5624 5570 5542 5529 5585 5663 5709 5689 5646 5590 5444 5290 5137 4996 4919 4836 4770 4699 4636 4534 4445 4327 4227 4146 4070 4023 3966 3894 3802 3716 3626
3260 3316 3346 3407 3471 3526 3586 3657 3726 3793 3847 3882 3945 4005 3993 3977 3941 3924 3929 3973 4051 4138 4235 4343 4473 4601 4746 4878 5001 5124 5222 5322 5433 5552 5670 5785 5945 6098 6210 6248 6267 6287 6287 6295 6310 6343 6359 6397 6469 6580 6662 6747 6809 6834 6846 6855 6888 6990 6993 6956 6911 6836 6723 6626 6534 6477 6422 6259 6116 6081 6007 5903 5821 5765 5741 5726 5745 5802 5818 5759 5702 5566 5344 5147 4957 4820 4764 4763 4766 4732 4655 4580 4482 4394 4312 4223 4141 4088 4021 3949 3879 3826 3730
3398 3445 3523 3565 3648 3700 3766 3826 3909 3974 4042 4093 4145 4188 4207 4168 4104 4079 4077 4096 4140 4219 4312 4420 4550 4680 4795 4946 5067 5187 5276 5346 5448 5548 5655 5766 5906 6057 6185 6228 6250 6272 6266 6277 6277 6327 6373 6451 6554 6662 6758 6851 6929 6981 6976 6960 6968 7007 6990 6976 6939 6880 6773 6708 6633 6538 6451 6377 6336 6362 6284 6199 6121 6077 6007 5943 5876 5827 5741 5666 5560 5352 5137 4953 4827 4763 4755 4765 4786 4755 4649 4547 4414 4332 4252 4190 4127 4074 4021 3951 3896 3843 3779
3563 3616 3694 3727 3790 3862 3928 3999 4063 4118 4208 4243 4291 4315 4309 4295 4251 4209 4188 4196 4224 4276 4357 4467 4583 4713 4828 4957 5091 5194 5286 5353 5462 5553 5652 5760 5880 6020 6157 6200 6244 6255 6266 6289 6312 6380 6485 6579 6673 6761 6851 6943 7040 7082 7071 7062 7040 7018 7020 6983 6963 6896 6854 6793 6706 6615 6510 6475 6506 6506 6471 6438 6377 6337 6228 6110 5984 5857 5727 5609 5478 5328 5175 5099 5030 5008 4985 4907 4816 4685 4560 4429 4310 4177 4106 4038 3981 3934 3880 3816 3771 3718 3657
3697 3747 3810 3854 3893 3959 4013 4085 4154 4238 4276 4313 4349 4367 4345 4341 4325 4275 4238 4246 4247 4265 4349 4422 4543 4662 4779 4915 5049 5146 5230 5345 5434 5530 5602 5718 5816 5959 6079 6170 6213 6219 6255 6312 6391 6463 6568 6648 6716 6776 6844 6941 7011 7039 7027 7027 7029 7025 7026 6984 6928 6922 6913 6854 6768 6680 6673 6683 6698 6677 6609 6554 6496 6415 6335 6225 6099 5970 5837 5726 5612 5516 5415 5338 5264 5176 5057 4921 4757 4604 4438 4268 4119 3984 3890 3820 3746 3665 3618 3565 3482 3429 3368
3822 3880 3896 3943 3986 4013 4068 4123 4179 4237 4281 4309 4341 4346 4349 4349 4349 4343 4327 4290 4258 4268 4318 4385 4481 4591 4708 4841 4984 5075 5153 5279 5368 5443 5526 5608 5707 5832 5970 6082 6152 6202 6273 6349 6429 6528 6605 6673 6735 6776 6818 6860 6894 6883 6888 6893 6923 6957 6959 6944 6929 6907 6893 6848 6810 6799 6818 6860 6871 6826 6704 6639 6545 6426 6360 6233 6118 5999 5901 5801 5688 5593 5471 5345 5198 5043 4866 4719 4544 4371 4170 3973 3796 3659 3574 3496 3420 3334 3273 3204 3151 3090 3032
3919 3988 4035 4051 4063 4071 4098 4130 4155 4182 4202 4213 4233 4261 4294 4316 4341 4391 4402 4402 4385 4362 4396 4443 4510 4595 4723 4857 4974 5068 5149 5243 5338 5411 5469 5535 5662 5777 5898 6040 6144 6248 6340 6414 6513 6562 6641 6698 6741 6756 6804 6831 6826 6803 6803 6816 6832 6840 6864 6857 6843 6821 6788 6803 6818 6880 6916 6938 6907 6820 6713 6596 6496 6395 6296 6169 6055 5947 5843 5737 5604 5433 5287 5106 4932 4721 4485 4275 4056 3860 3636 3454 3306 3166 3082 3010 2946 2893 2813 2757 2738 2732 2704
4043 4104 4112 4132 4151 4147 4154 4159 4167 4172 4167 4151 4137 4160 4213 4274 4326 4407 4474 4516 4532 4560 4566 4617 4676 4734 4851 4952 5066 5132 5207 5297 5378 5445 5512 5603 5711 5846 5995 6127 6264 6379 6463 6545 6618 6670 6726 6752 6795 6804 6809 6837 6822 6785 6757 6749 6748 6759 6765 6754 6737 6743 6758 6792 6868 6913 6935 6896 6814 6704 6607 6482 6386 6287 6190 6098 5970 5846 5725 5584 5398 5190 4985 4747 4470 4204 3913 3618 3340 3076 2889 2771 2670 2567 2498 2455 2414 2326 2320 2322 2327 2371 2417
4187 4230 4254 4245 4257 4237 4233 4213 4196 4187 4182 4163 4152 4145 4181 4248 4350 4466 4561 4642 4690 4726 4783 4840 4907 4971 5057 5154 5207 5257 5318 5399 5459 5517 5601 5690 5806 5948 6094 6237 6383 6529 6599 6673 6710 6763 6798 6812 6829 6813 6791 6796 6798 6778 6736 6719 6716 6732 6735 6736 6734 6759 6808 6859 6896 6885 6837 6752 6671 6560 6463 6369 6261 6172 6087 5991 5870 5707 5526 5354 5137 4865 4599 4284 3924 3563 3229 2946 2669 2447 2324 2235 2165 2101 2051 2031 2003 1981 1978 1994 2057 2111 2188
4282 4309 4316 4318 4330 4318 4284 4267 4241 4224 4202 4225 4226 4240 4260 4329 4451 4553 4678 4776 4865 4918 4998 5077 5145 5212 5262 5317 5354 5379 5460 5496 5524 5594 5677 5780 5878 6020 6149 6296 6437 6570 6643 6709 6748 6785 6813 6800 6817 6795 6791 6791 6796 6790 6754 6740 6723 6734 6749 6746 6770 6782 6845 6845 6806 6725 6674 6582 6485 6399 6340 6265 6191 6098 5988 5852 5688 5482 5224 4951 4693 4399 4037 3670 3320 3005 2720 2499 2310 2185 2126 2095 2073 2025 2011 1983 1983 1958 1902 1866 1888 1959 2002
4336 4338 4351 4341 4357 4337 4301 4270 4224 4216 4216 4235 4291 4327 4353 4439 4550 4680 4810 4935 5029 5110 5185 5273 5355 5387 5413 5450 5478 5481 5543 5584 5612 5659 5718 5793 5890 5982 6107 6246 6371 6521 6605 6675 6721 6746 6758 6780 6786 6774 6774 6785 6780 6768 6768 6741 6724 6725 6765 6803 6810 6820 6787 6727 6655 6562 6504 6451 6392 6322 6276 6216 6122 5986 5816 5627 5379 5095 4806 4487 4133 3768 3391 3049 2770 2512 2326 2179 2079 2018 2026 2052 2104 2126 2112 2105 2102 2063 1931 1887 1873 1862 1889
4407 4398 4384 4374 4351 4348 4301 4264 4220 4183 4183 4213 4280 4361 4436 4555 4672 4830 4993 5114 5227 5300 5366 5438 5487 5514 5541 5563 5580 5603 5636 5655 5677 5699 5749 5813 5866 5952 6033 6130 6228 6356 6462 6554 6594 6622 6648 6670 6690 6696 6674 6677 6660 6641 6655 6664 6701 6741 6827 6840 6827 6768 6693 6620 6566 6502 6443 6373 6333 6287 6201 6103 5961 5774 5510 5234 4920 4589 4270 3900 3550 3225 2956 2701 2458 2237 2079 1974 1921 1910 1978 2029 2084 2119 2129 2135 2134 2137 2093 2071 2043 2026 2037
4451 4453 4427 4416 4379 4357 4326 4262 4214 4164 4164 4176 4234 4326 4450 4591 4736 4922 5112 5275 5394 5508 5571 5610 5643 5645 5661 5683 5672 5683 5694 5721 5743 5746 5756 5800 5839 5875 5917 5976 6040 6157 6255 6328 6359 6393 6418 6455 6498 6518 6521 6516 6511 6522 6564 6643 6754 6848 6904 6877 6824 6743 6679 6615 6561 6532 6450 6368 6280 6196 6073 5911 5691 5401 5045 4703 4367 4068 3805 3522 3252 3014 2776 2596 2430 2292 2201 2107 2027 1996 2056 2124 2162 2162 2156 2162 2148 2145 2156 2206 2234 2267 2251
4474 4477 4477 4460 4429 4379 4332 4284 4226 4176 4148 4185 4232 4346 4471 4618 4781 4980 5191 5382 5534 5647 5716 5754 5771 5756 5775 5786 5780 5785 5785 5788 5771 5784 5800 5799 5821 5843 5827 5844 5902 5970 6063 6110 6152 6177 6220 6277 6330 6382 6435 6461 6509 6531 6661 6805 6904 6971 6946 6884 6803 6742 6706 6652 6590 6527 6439 6303 6155 6038 5862 5614 5296 4940 4540 4185 3881 3602 3360 3133 2900 2701 2571 2468 2393 2351 2318 2265 2185 2140 2223 2288 2304 2304 2316 2338 2344 2352 2340 2360 2355 2359 2331
4502 4485 4488 4471 4423 4362 4309 4256 4231 4181 4182 4210 4286 4389 4522 4660 4826 5020 5228 5410 5596 5742 5830 5869 5896 5859 5861 5866 5852 5849 5855 5866 5866 5863 5879 5870 5853 5839 5794 5785 5805 5864 5923 5965 6018 6079 6158 6226 6299 6400 6490 6564 6668 6801 6970 7065 7098 7030 6949 6902 6859 6825 6757 6673 6571 6496 6371 6179 5990 5764 5491 5168 4801 4426 4063 3784 3505 3269 3058 2875 2734 2601 2506 2437 2351 2292 2256 2217 2206 2239 2366 2446 2490 2471 2494 2486 2479 2512 2566 2580 2556 2521 2455
4603 4581 4538 4482 4440 4354 4284 4240 4226 4209 4215 4254 4313 4414 4556 4723 4883 5063 5248 5437 5616 5799 5910 5964 5988 5956 5941 5941 5932 5952 5970 5978 5989 5978 5962 5937 5898 5866 5824 5778 5763 5774 5844 5921 6016 6107 6220 6304 6409 6516 6629 6807 6971 7152 7223 7219 7157 7076 7016 6977 6938 6859 6755 6648 6562 6432 6229 6004 5700 5388 5034 4676 4340 4013 3723 3495 3291 3082 2891 2763 2655 2596 2505 2435 2341 2283 2272 2266 2316 2413 2576 2646 2677 2713 2698 2668 2644 2691 2720 2704 2668 2652 2587
4682 4654 4626 4568 4498 4434 4354 4295 4262 4251 4267 4282 4341 4425 4565 4720 4901 5095 5271 5479 5645 5826 5966 6037 6074 6053 6016 5996 6013 6044 6098 6118 6105 6066 6028 6001 5964 5916 5861 5790 5743 5762 5884 6041 6202 6325 6415 6517 6620 6728 6938 7127 7262 7316 7312 7275 7215 7144 7077 6993 6892 6796 6703 6576 6457 6267 6020 5696 5340 4958 4597 4267 3943 3692 3461 3252 3088 2915 2829 2770 2727 2680 2638 2591 2552 2530 2535 2566 2630 2728 2859 2928 2954 2924 2913 2856 2824 2808 2778 2740 2680 2625 2554
4681 4676 4654 4610 4566 4505 4450 4406 4370 4337 4359 4373 4413 4464 4593 4735 4935 5118 5337 5530 5732 5898 6047 6140 6163 6123 6091 6108 6145 6226 6263 6278 6260 6225 6170 6134 6096 6025 5925 5859 5840 5924 6074 6246 6402 6520 6580 6702 6870 7085 7268 7377 7409 7383 7350 7295 7213 7144 7021 6892 6791 6670 6571 6413 6204 5955 5607 5221 4837 4480 4162 3877 3627 3423 3245 3070 2954 2851 2820 2816 2823 2820 2808 2772 2766 2799 2841 2895 2979 3079 3144 3147 3120 3066 3000 2896 2808 2756 2701 2646 2602 2548 2476
4699 4685 4671 4627 4612 4576 4549 4534 4498 4471 4476 4488 4496 4539 4640 4799 4988 5202 5438 5642 5821 6020 6177 6254 6287 6235 6268 6312 6371 6455 6474 6473 6460 6446 6410 6351 6263 6174 6077 6066 6117 6209 6293 6399 6495 6629 6776 6974 7207 7415 7468 7503 7448 7395 7296 7208 7094 6985 6867 6743 6642 6535 6348 6091 5801 5465 5068 4692 4358 4058 3835 3637 3465 3312 3193 3074 2999 2957 2957 2937 2938 2929 2918 2882 2885 2960 3030 3081 3143 3179 3160 3128 3095 3054 2958 2828 2735 2658 2570 2520 2506 2490 2440
4775 4741 4719 4714 4698 4663 4650 4623 4599 4599 4605 4594 4598 4623 4713 4864 5040 5256 5491 5714 5932 6133 6285 6377 6407 6423 6450 6475 6524 6602 6660 6685 6705 6683 6641 6567 6501 6426 6382 6372 6386 6435 6474 6573 6698 6902 7141 7357 7517 7598 7534 7468 7366 7256 7115 6987 6880 6776 6679 6569 6455 6287 6010 5679 5321 4957 4620 4333 4092 3885 3746 3599 3486 3398 3348 3290 3240 3218 3182 3134 3087 3034 2967 2951 2910 2953 2983 3004 3029 3023 2993 2936 2867 2829 2773 2698 2618 2557 2515 2465 2446 2484 2451
4863 4815 4804 4791 4775 4765 4746 4722 4709 4676 4693 4710 4724 4752 4826 4949 5102 5315 5538 5784 5987 6221 6382 6474 6514 6548 6527 6516 6569 6653 6762 6818 6852 6846 6817 6807 6741 6678 6616 6596 6611 6662 6771 6935 7131 7389 7538 7611 7620 7559 7424 7276 7124 6971 6862 6772 6687 6615 6529 6399 6199 5912 5539 5194 4850 4563 4372 4196 4065 3929 3824 3749 3689 3645 3623 3557 3496 3438 3336 3220 3101 2982 2899 2840 2780 2769 2790 2793 2814 2788 2717 2671 2607 2541 2524 2510 2507 2501 2522 2535 2546 2570 2537
4945 4929 4910 4884 4873 4834 4795 4779 4774 4769 4810 4849 4897 4923 4974 5047 5189 5377 5612 5848 6051 6268 6396 6466 6523 6571 6562 6555 6590 6687 6793 6877 6941 6969 6974 6945 6896 6812 6798 6836 6927 7084 7282 7467 7619 7715 7674 7598 7482 7345 7171 7014 6859 6757 6695 6651 6584 6508 6304 6039 5704 5316 4980 4712 4505 4354 4257 4137 4051 3943 3871 3813 3791 3741 3637 3527 3393 3235 3078 2923 2788 2675 2612 2595 2549 2546 2554 2572 2571 2558 2520 2454 2387 2362 2373 2390 2434 2466 2560 2626 2674 2693 2659
5072 5085 5062 5021 4960 4875 4795 4761 4772 4823 4887 4960 5009 5062 5102 5170 5285 5462 5679 5882 6080 6255 6397 6495 6567 6631 6652 6638 6656 6713 6798 6896 6973 7034 7020 6992 6983 6990 7072 7235 7419 7620 7759 7805 7779 7685 7548 7405 7257 7067 6918 6798 6705 6664 6620 6549 6389 6171 5802 5435 5101 4796 4637 4498 4393 4310 4213 4132 4076 3967 3881 3801 3707 3605 3468 3291 3129 2966 2809 2665 2557 2480 2440 2412 2402 2396 2404 2408 2417 2387 2360 2318 2307 2296 2334 2378 2422 2494 2607 2687 2748 2772 2724
5208 5225 5191 5090 4952 4812 4721 4672 4700 4790 4899 5001 5080 5124 5203 5279 5396 5529 5699 5886 6073 6270 6463 6607 6704 6759 6760 6735 6742 6770 6849 6917 6977 7031 7073 7122 7210 7331 7520 7715 7863 7964 7932 7828 7691 7526 7345 7166 7009 6873 6772 6715 6671 6632 6534 6323 6015 5623 5269 4989 4795 4688 4604 4522 4417 4309 4230 4146 4055 3954 3810 3652 3489 3343 3195 3041 2917 2754 2616 2525 2437 2385 2351 2334 2324 2307 2291 2309 2290 2291 2279 2301 2329 2342 2359 2375 2400 2486 2599 2671 2738 2749 2720
5351 5328 5213 5010 4835 4678 4604 4595 4631 4727 4865 4997 5096 5201 5295 5385 5496 5579 5727 5903 6128 6376 6602 6754 6820 6840 6799 6761 6772 6817 6891 6968 7049 7133 7252 7404 7582 7782 7944 8017 8043 7982 7861 7702 7510 7323 7150 6987 6889 6829 6788 6720 6655 6543 6270 5895 5509 5121 4964 4861 4820 4761 4624 4477 4371 4273 4196 4086 3973 3839 3648 3440 3277 3103 2974 2841 2732 2616 2503 2415 2359 2318 2279 2252 2246 2239 2270 2271 2274 2290 2315 2359 2380 2402 2380 2384 2412 2470 2572 2644 2677 2710 2682
5432 5301 5069 4829 4645 4531 4511 4525 4606 4690 4830 4977 5134 5273 5377 5468 5546 5651 5804 6002 6255 6533 6721 6815 6855 6831 6801 6784 6843 6900 7027 7127 7270 7430 7608 7785 7963 8109 8101 8057 7966 7878 7724 7538 7329 7144 7033 6946 6902 6876 6821 6718 6552 6287 5834 5410 5107 4936 4944 4907 4851 4730 4570 4441 4323 4212 4091 3962 3816 3651 3451 3271 3100 2945 2816 2706 2590 2491 2410 2337 2280 2251 2220 2230 2239 2293 2323 2329 2345 2353 2402 2444 2466 2483 2466 2450 2470 2541 2616 2660 2698 2723 2705
5365 5129 4857 4639 4492 4435 4446 4494 4573 4679 4820 4976 5114 5291 5407 5496 5605 5740 5943 6194 6417 6635 6743 6796 6820 6827 6877 6941 7011 7112 7229 7373 7546 7757 7945 8081 8156 8139 8046 7936 7826 7684 7505 7320 7179 7065 7030 6995 6949 6908 6783 6576 6255 5821 5362 5077 4949 4960 4988 4927 4834 4698 4566 4439 4306 4138 3977 3829 3652 3455 3233 3073 2920 2801 2680 2571 2491 2404 2331 2291 2249 2231 2230 2259 2315 2373 2401 2389 2411 2438 2460 2521 2557 2591 2605 2610 2632 2682 2731 2761 2794 2815 2843
5182 4893 4662 4509 4410 4351 4398 4457 4559 4674 4823 4960 5130 5296 5436 5547 5694 5892 6104 6327 6510 6644 6714 6773 6842 6925 7055 7150 7214 7303 7433 7605 7816 8026 8123 8162 8102 7997 7893 7772 7634 7477 7320 7176 7105 7048 7041 7023 6943 6843 6580 6235 5816 5370 5078 4973 4973 5032 5024 4937 4801 4655 4567 4448 4301 4096 3877 3662 3475 3261 3040 2860 2730 2663 2532 2428 2355 2315 2273 2266 2268 2277 2292 2329 2395 2423 2450 2461 2460 2477 2541 2596 2677 2743 2776 2809 2842 2874 2918 2968 3006 3066 3116
4949 4726 4567 4446 4359 4319 4353 4426 4542 4691 4848 4997 5156 5329 5507 5648 5822 6048 6227 6377 6494 6584 6668 6791 6905 7068 7213 7299 7396 7467 7652 7846 8032 8145 8124 8052 7921 7805 7728 7612 7483 7292 7186 7113 7084 7046 7033 6965 6829 6623 6246 5838 5426 5116 5001 5018 5060 5095 5046 4964 4858 4693 4562 4417 4255 4031 3752 3507 3276 3059 2857 2686 2565 2490 2390 2305 2244 2224 2214 2268 2286 2315 2334 2373 2412 2461 2488 2510 2549 2563 2638 2738 2818 2898 2970 3003 3063 3102 3160 3215 3287 3361 3433
4832 4685 4558 4454 4347 4288 4330 4421 4534 4703 4869 5043 5208 5414 5585 5790 5946 6100 6199 6288 6406 6513 6680 6841 6996 7188 7310 7418 7559 7719 7901 8059 8129 8113 7981 7866 7784 7706 7618 7471 7316 7141 7076 7066 7081 7055 6965 6835 6606 6314 5912 5527 5217 5024 5030 5093 5141 5159 5099 5018 4922 4748 4537 4341 4124 3891 3599 3329 3085 2852 2680 2510 2389 2324 2276 2230 2210 2199 2227 2265 2290 2321 2343 2379 2417 2461 2516 2549 2590 2676 2776 2893 2984 3087 3153 3209 3300 3391 3483 3591 3683 3763 3849
4828 4727 4623 4504 4415 4364 4379 4438 4566 4707 4899 5073 5282 5480 5676 5833 5951 6029 6095 6181 6337 6501 6696 6901 7084 7253 7405 7577 7774 7940 8064 8101 8052 7948 7816 7745 7684 7620 7468 7307 7146 7023 7029 7050 7040 6981 6832 6629 6368 6013 5609 5304 5110 5037 5105 5207 5266 5280 5199 5090 4912 4718 4468 4210 3938 3645 3366 3096 2852 2629 2455 2312 2228 2177 2193 2200 2224 2204 2230 2239 2234 2299 2354 2390 2422 2471 2549 2623 2737 2840 2954 3059 3184 3287 3379 3507 3640 3788 3922 4033 4139 4259 4352
4904 4834 4730 4641 4568 4503 4492 4524 4618 4754 4931 5125 5315 5502 5662 5749 5834 5912 5999 6157 6359 6564 6802 7001 7226 7409 7592 7775 7947 8066 8065 8013 7909 7805 7750 7675 7589 7434 7228 7083 7004 6984 6996 6970 6916 6801 6645 6393 6087 5702 5385 5197 5104 5141 5290 5391 5441 5413 5281 5096 4868 4580 4295 3973 3674 3362 3073 2815 2568 2406 2285 2201 2123 2108 2143 2178 2199 2190 2174 2174 2218 2327 2373 2411 2477 2559 2662 2765 2879 2984 3098 3243 3399 3577 3744 3920 4079 4266 4406 4540 4646 4755 4857
4997 4973 4918 4857 4764 4685 4660 4685 4737 4848 5014 5191 5343 5482 5565 5677 5744 5838 6037 6265 6522 6815 7096 7334 7537 7709 7895 8021 8110 8095 7996 7904 7799 7733 7655 7521 7341 7127 6982 6909 6888 6879 6798 6747 6656 6575 6409 6148 5823 5507 5285 5213 5263 5379 5525 5602 5585 5481 5287 5015 4694 4362 3996 3656 3333 2999 2735 2514 2346 2209 2157 2143 2134 2152 2165 2170 2168 2145 2149 2201 2258 2356 2449 2521 2598 2695 2792 2909 3037 3190 3338 3521 3741 3990 4207 4417 4597 4765 4900 5006 5090 5160 5229
5166 5189 5154 5079 4995 4888 4873 4873 4921 5004 5145 5284 5404 5470 5558 5667 5812 6001 6262 6551 6896 7216 7476 7675 7866 8047 8151 8185 8136 8046 7941 7845 7740 7624 7440 7246 7043 6870 6835 6815 6758 6682 6548 6477 6415 6340 6157 5939 5691 5474 5391 5422 5534 5668 5742 5711 5590 5384 5101 4758 4404 4025 3652 3293 2967 2670 2426 2263 2165 2097 2138 2165 2216 2260 2217 2171 2150 2095 2174 2241 2323 2441 2532 2609 2706 2803 2915 3066 3235 3452 3692 3951 4233 4507 4745 4920 5083 5237 5355 5390 5432 5438 5441
5415 5446 5378 5284 5188 5070 5034 5053 5109 5191 5313 5439 5537 5618 5734 5887 6096 6363 6696 7063 7418 7741 7926 8048 8145 8256 8235 8152 8065 7949 7828 7704 7537 7359 7154 6979 6834 6760 6730 6646 6561 6446 6355 6311 6255 6180 6022 5851 5708 5605 5627 5699 5774 5841 5757 5610 5404 5127 4789 4432 4051 3659 3274 2949 2640 2382 2209 2126 2105 2110 2165 2239 2252 2248 2249 2205 2133 2118 2176 2252 2370 2532 2656 2742 2840 2926 3047 3251 3493 3799 4169 4501 4790 5037 5229 5381 5508 5612 5671 5662 5635 5619 5569
5684 5714 5601 5454 5327 5207 5179 5215 5277 5376 5513 5661 5830 5962 6121 6308 6531 6815 7163 7493 7805 8076 8207 8273 8290 8246 8141 8026 7905 7757 7635 7471 7284 7084 6923 6802 6718 6643 6528 6424 6327 6262 6243 6202 6173 6110 6002 5922 5865 5847 5893 5891 5860 5777 5591 5347 5078 4765 4417 4058 3671 3301 2930 2613 2347 2148 2104 2122 2174 2226 2294 2296 2254 2198 2220 2173 2138 2187 2175 2271 2433 2656 2781 2884 2974 3113 3312 3596 3944 4348 4722 5033 5309 5498 5629 5745 5807 5849 5875 5870 5846 5793 5746
5940 5896 5739 5550 5385 5250 5251 5304 5394 5505 5731 5951 6200 6393 6563 6763 6999 7298 7589 7817 8015 8196 8290 8306 8257 8125 7966 7829 7682 7541 7429 7257 7095 6934 6785 6665 6560 6455 6337 6282 6236 6223 6213 6207 6177 6111 6065 6048 6024 6005 5980 5878 5731 5542 5298 5032 4687 4361 4024 3651 3294 2929 2595 2326 2170 2088 2155 2251 2303 2363 2377 2315 2273 2229 2165 2123 2122 2198 2312 2449 2607 2803 2942 3065 3227 3424 3731 4107 4501 4914 5254 5538 5755 5862 5936 5987 5996 6035 6029 6051 6053 6038 6029
6103 5993 5797 5594 5423 5266 5293 5391 5554 5721 5990 6265 6524 6728 6942 7166 7405 7651 7871 8029 8174 8317 8317 8240 8090 7909 7763 7627 7519 7413 7296 7118 6939 6779 6664 6537 6421 6342 6302 6273 6291 6282 6281 6265 6213 6179 6151 6093 6041 5959 5840 5682 5466 5241 4959 4664 4324 3982 3634 3268 2898 2571 2332 2184 2146 2183 2320 2367 2395 2430 2377 2282 2195 2095 2091 2123 2174 2285 2461 2651 2874 3013 3159 3334 3582 3883 4268 4681 5070 5388 5650 5876 6057 6132 6161 6156 6145 6158 6165 6184 6204 6234 6270
6145 6021 5843 5634 5435 5298 5354 5512 5731 5968 6246 6498 6721 6924 7170 7466 7743 7962 8107 8232 8306 8355 8213 8040 7859 7719 7611 7524 7443 7312 7129 6955 6813 6675 6571 6509 6449 6420 6413 6404 6407 6390 6379 6335 6267 6227 6141 6016 5882 5755 5614 5409 5196 4928 4633 4299 3962 3641 3256 2879 2553 2313 2215 2221 2313 2423 2453 2420 2368 2359 2264 2171 2077 2002 2099 2199 2349 2513 2673 2875 3080 3258 3461 3701 4024 4387 4803 5182 5494 5740 5946 6107 6246 6295 6266 6261 6244 6229 6241 6251 6274 6314 6390
6155 5982 5783 5613 5451 5376 5446 5635 5890 6178 6431 6655 6874 7099 7434 7754 8017 8200 8320 8386 8377 8262 8032 7834 7691 7614 7563 7454 7343 7176 6984 6824 6718 6650 6616 6613 6618 6615 6595 6546 6504 6473 6429 6341 6275 6167 6039 5871 5690 5527 5355 5154 4925 4652 4323 3985 3629 3246 2867 2574 2350 2254 2271 2360 2440 2451 2402 2328 2237 2191 2104 2059 2055 2125 2238 2380 2552 2720 2933 3110 3294 3520 3798 4116 4479 4906 5271 5567 5794 5970 6102 6229 6314 6357 6351 6349 6344 6349 6352 6367 6379 6404 6474
6060 5816 5690 5587 5543 5502 5630 5840 6112 6410 6686 6901 7121 7365 7633 7910 8150 8391 8490 8479 8350 8098 7856 7719 7641 7605 7543 7387 7198 7011 6883 6785 6741 6768 6802 6829 6796 6751 6655 6571 6464 6394 6308 6228 6114 5978 5819 5652 5470 5305 5129 4914 4649 4353 4015 3624 3239 2860 2566 2406 2324 2362 2397 2416 2408 2354 2271 2193 2093 2024 2032 2111 2195 2274 2408 2534 2688 2895 3127 3344 3553 3843 4199 4593 4982 5352 5615 5820 5970 6095 6196 6287 6374 6415 6439 6482 6515 6516 6561 6587 6634 6664 6745
5948 5743 5640 5584 5607 5691 5883 6078 6346 6608 6892 7119 7334 7537 7795 8096 8370 8573 8584 8463 8246 7933 7779 7691 7666 7612 7464 7264 7059 6887 6848 6870 6934 6982 6984 6920 6818 6675 6518 6369 6257 6134 6059 5959 5862 5749 5596 5457 5279 5143 4922 4682 4388 4056 3668 3265 2891 2584 2445 2391 2410 2445 2453 2379 2296 2238 2166 2090 2003 1970 2059 2134 2273 2370 2484 2633 2835 3070 3359 3612 3901 4266 4660 5049 5383 5663 5862 5971 6084 6191 6292 6401 6525 6604 6655 6716 6765 6816 6902 6949 7024 7087 7186
5899 5763 5685 5635 5696 5846 6074 6282 6484 6681 6907 7177 7468 7746 8046 8343 8579 8666 8523 8342 8114 7900 7801 7742 7653 7522 7297 7091 6951 6896 6985 7046 7096 7084 6983 6826 6629 6418 6216 6042 5896 5768 5707 5637 5585 5534 5432 5308 5138 4977 4753 4460 4119 3722 3316 2961 2662 2465 2428 2417 2449 2457 2391 2278 2165 2087 2013 2003 2009 2032 2110 2229 2354 2443 2561 2735 2968 3271 3593 3949 4323 4721 5121 5439 5707 5876 6001 6095 6199 6345 6506 6690 6851 6990 7045 7094 7145 7188 7205 7247 7302 7387 7477
5862 5818 5768 5790 5882 6095 6309 6544 6732 6880 7038 7268 7588 7938 8262 8497 8596 8540 8326 8155 8037 7916 7802 7680 7502 7313 7091 6973 6927 7027 7116 7140 7071 6966 6764 6570 6347 6116 5920 5732 5571 5468 5429 5403 5401 5380 5302 5191 5048 4852 4565 4207 3812 3393 3026 2743 2563 2493 2493 2478 2439 2376 2268 2132 2021 1942 1932 1981 2071 2171 2284 2384 2457 2520 2672 2880 3172 3533 3970 4398 4800 5183 5495 5732 5903 6046 6140 6260 6422 6627 6879 7115 7291 7418 7451 7458 7446 7414 7357 7371 7390 7506 7559